#timestamp,LO_Frequency,Hit,StdDev 
1596196815.3,286046993.6,N
1596196835.1,286046992.7,N
1596196836.0,286046992.7,N
1596196855.8,286046994.9,N
1596196875.7,286046994.9,N
1596196895.5,286046995.4,N
1596196915.3,286046998.0,N
1596196935.2,286046995.8,N
1596196955.0,286046996.2,N
1596196955.9,286046996.2,N
1596196975.8,286046994.9,N
1596196995.6,286046996.3,N
1596197015.4,286046988.1,N
1596197035.3,286046984.4,N
1596197055.1,286046982.2,N
1596197075.8,286046977.8,N
1596197095.7,286046979.1,N
1596197115.5,286046982.8,N
1596197135.4,286046979.0,N
1596197155.2,286046974.7,N
1596197175.0,286046975.5,N
1596197175.9,286046975.5,N
1596197195.8,286046979.4,N
1596197215.6,286046985.7,N
1596197235.4,286046990.4,N
1596197255.3,286046990.8,N
1596197275.1,286046990.2,N
1596197295.9,286046992.3,N
1596197315.7,286046992.9,N
1596197335.6,286046990.5,N
1596197355.4,286046992.5,N
1596197375.2,286046994.7,N
1596197395.1,286046994.9,N
1596197396.0,286046994.9,N
1596197415.8,286046993.7,N
1596197435.6,286046997.9,N
1596197455.5,286046995.0,N
1596197475.3,286046992.8,N
1596197495.2,286046992.6,N
1596197515.9,286046991.9,N
1596197535.7,286046995.5,N
1596197555.6,286047003.6,N
1596197575.4,286047009.8,N
1596197595.2,286047018.7,N
1596197615.1,286047015.8,N
1596197616.0,286047015.8,N
1596197635.8,286047015.4,N
1596197655.7,286047018.3,N
1596197675.5,286047019.1,N
1596197695.3,286047028.8,N
1596197715.2,286047030.7,N
1596197735.0,286047025.3,N
1596197735.9,286047025.3,N
1596197755.8,286047024.9,N
1596197775.6,286047025.8,N
1596197795.4,286047034.9,N
1596197815.3,286047029.7,N
1596197835.1,286047025.6,N
1596197855.8,286047025.0,N
1596197875.7,286047022.5,N
1596197895.5,286047026.7,N
1596197915.3,286047028.2,N
1596197935.2,286047029.9,N
1596197955.0,286047028.2,N
1596197955.9,286047028.2,N
1596197975.8,286047029.1,N
1596197995.6,286047033.2,N
1596198045.5,286047042.6,E
1596198055.4,286047030.0,N
1596198075.2,286047015.5,P
1596198095.1,286047022.2,P
1596198096.0,286047022.2,Y
1596198115.8,286047011.5,P
1596198135.6,286047017.9,P
1596198155.5,286047014.9,P
1596198175.3,286047009.2,N
1596198195.2,286047002.2,N
1596198215.9,286046998.1,N
1596198235.7,286046994.2,N
1596198255.6,286046990.0,N
1596198275.4,286046984.0,N
1596198295.2,286046986.3,N
1596198315.1,286046987.6,N
1596198316.0,286046987.6,N
1596198335.8,286046984.8,N
1596198355.7,286046985.1,N
1596198375.5,286046977.3,N
1596198395.3,286046978.6,N
1596198415.2,286046978.3,N
1596198435.0,286046975.6,N
1596198435.9,286046975.6,N
1596198455.7,286046966.1,N
1596198475.6,286046960.4,N
1596198495.4,286046954.2,N
1596198515.3,286046953.2,N
1596198535.1,286046952.0,N
1596198536.0,286046952.0,N
1596198555.8,286046955.7,N
1596198575.7,286046956.8,N
1596198595.5,286046958.2,N
1596198615.3,286046962.7,N
1596198635.2,286046962.5,N
1596198655.0,286046964.3,N
1596198655.9,286046964.3,N
1596198675.8,286046962.4,N
1596198695.6,286046961.0,N
1596198715.4,286046959.7,N
1596198735.3,286046959.7,N
1596198755.1,286046958.7,Y
1596198775.9,286046989.9,P
1596198795.7,286046987.3,N
1596198815.5,286046984.1,N
1596198835.4,286046978.0,N
1596198855.2,286046971.7,Y
1596198875.1,286046985.7,P
1596198876.0,286046985.7,P
1596198895.8,286046986.3,P
1596198915.6,286046983.2,Y
1596198935.5,286046994.8,P
1596198955.3,286046992.2,N
1596198975.2,286046997.0,N
1596198995.9,286046999.6,N
1596199015.7,286046993.6,N
1596199035.6,286046990.7,N
1596199055.4,286046993.6,N
1596199075.2,286046995.7,N
1596199095.1,286046995.5,N
1596199096.0,286046995.5,N
1596199115.8,286046995.6,N
1596199135.7,286046997.7,N
1596199155.5,286046996.2,N
1596199175.3,286046989.5,Y
1596199195.2,286046993.3,P
1596199215.0,286046996.2,P
1596199215.9,286046996.2,P
1596199235.8,286046996.0,Y
1596199255.6,286046998.7,P
1596199275.4,286047001.2,N
1596199295.3,286047001.2,N
1596199315.1,286046992.1,Y
1596199335.9,286046997.7,P
1596199355.7,286046996.5,P
1596199375.5,286046998.1,N
1596199395.4,286047002.2,N
1596199415.2,286047003.0,N
1596199435.1,286047007.2,Y
1596199436.0,286047007.2,P
1596199455.8,286047005.4,N
1596199475.6,286047003.7,N
1596199495.5,286047005.3,N
1596199515.3,286047009.2,Y
1596199535.1,286047008.0,P
1596199555.9,286047016.8,P
1596199575.7,286047016.5,P
1596199595.6,286047012.0,N
1596199615.4,286047011.4,N
1596199635.2,286047017.6,Y
1596199655.1,286047012.1,P
1596199656.0,286047012.1,P
1596199675.8,286047021.4,P
1596199695.6,286047019.1,Y
1596199715.5,286047007.6,P
1596199735.3,286046998.5,N
1596199755.2,286046999.3,N
1596199775.9,286046999.0,N
1596199795.7,286046999.1,N
1596199815.6,286047001.0,N
1596199835.4,286046999.4,N
1596199855.2,286046996.5,N
1596199875.1,286046994.7,N
1596199876.0,286046994.7,N
1596199895.8,286046992.7,N
1596199915.7,286046992.7,N
1596199935.5,286046992.6,N
1596199955.3,286046993.5,N
1596199975.2,286046998.7,N
1596199995.0,286047004.4,N
1596199995.9,286047004.4,N
1596200015.7,286047002.6,N
1596200035.6,286047000.0,N
1596200055.4,286046998.5,N
1596200075.3,286046997.7,N
1596200095.1,286046996.9,N
1596200096.0,286046996.9,N
1596200115.8,286046997.1,N
1596200135.7,286046998.4,N
1596200155.5,286047005.9,N
1596200175.3,286047005.4,N
1596200195.2,286047003.7,N
1596200215.0,286047006.6,N
1596200215.9,286047006.6,N
1596200235.8,286047011.0,N
1596200255.6,286047021.6,Y
1596200275.4,286047022.1,P
1596200295.3,286047020.4,N
1596200315.1,286047011.8,N
1596200335.8,286047005.3,N
1596200355.7,286047003.8,N
1596200375.5,286046999.7,N
1596200395.4,286047002.2,N
